Grazzanise, Italy

5:26 AM CEST on August 21, 2017 (GMT +0200)
Grazzanise Mil

Weather History for LIRM - August, 2013

Change the Weather History Date:

Saturday, August 31, 2013

  Actual Average (LIRN) Record (LIRN)
Temperature  
Mean Temperature 74 °F -  
Max Temperature 87 °F 80 °F 89 °F (2015)
Min Temperature 60 °F 59 °F 60 °F (1997)
Cooling Degree Days 8    
Growing Degree Days 24 (Base 50)    
Moisture  
Dew Point 60 °F    
Average Humidity 64    
Maximum Humidity 94    
Minimum Humidity 21    
Precipitation  
Precipitation 0.00 in 0.10 in - ()
Sea Level Pressure  
Sea Level Pressure 30.02 in    
Wind  
Wind Speed 5 mph ()    
Max Wind Speed 12 mph    
Max Gust Speed -    
Visibility 9.1 miles    
Events      
Averages and records for this station are not official NWS values.
T = Trace of Precipitation, MM = Missing Value Source: Averaged Metar Reports

Daily Weather History Graph

Daily Weather History Graph

Search for Another Location

Airport or City:

Trip Planner

Search our weather history database for the weather conditions in past years. The results will help you decide how hot, cold, wet, or windy it might be!

Date:

Astronomy

Aug. 31, 2013 Rise Set
Actual Time 6:29 AM CEST 7:37 PM CEST
Civil Twilight 6:01 AM CEST 8:06 PM CEST
Nautical Twilight 5:27 AM CEST 8:39 PM CEST
Astronomical Twilight 4:51 AM CEST 9:15 PM CEST
Moon 1:41 AM CEST (8/31) 4:25 PM CEST (8/31)
Length of Visible Light 14h 05m
Length of Day
13h 08m
Waning Crescent, 23% of the Moon is Illuminated
Aug 31
Waning Crescent
Sep 5
New
Sep 12
First Quarter
Sep 19
Full
Sep 27
Last Quarter

Hourly Weather History & Observations

Time (CEST) Temp. Heat Index Dew Point Humidity Pressure Visibility Wind Dir Wind Speed Gust Speed Precip Events Conditions
12:55 AM 69.8 °F - 66.2 °F 88% 30.01 in - NE 6.9 mph - N/A   Clear
1:55 AM 66.2 °F - 64.4 °F 94% 30.01 in - East 2.3 mph - N/A   Clear
2:00 AM 67 °F - 64 °F 86% 30.02 in 16 mi East 2.3 mph - -  
2:55 AM 66.2 °F - 62.6 °F 88% 30.01 in - ENE 3.5 mph - N/A   Clear
3:55 AM 64.4 °F - 60.8 °F 88% 30.01 in - NNE 5.8 mph - N/A   Clear
4:55 AM 62.6 °F - 60.8 °F 94% 30.01 in - North 6.9 mph - N/A   Clear
5:00 AM 62 °F - 60 °F 90% 30.02 in 19 mi North 6.9 mph - -   Clear
5:55 AM 60.8 °F - 59.0 °F 94% 30.01 in - NNE 5.8 mph - N/A   Clear
6:55 AM 60.8 °F - 59.0 °F 94% 30.01 in 6.2 mi NNE 5.8 mph - N/A   Scattered Clouds
7:55 AM 66.2 °F - 60.8 °F 83% 30.01 in - NNE 2.3 mph - N/A   Clear
8:55 AM 69.8 °F - 60.8 °F 73% 30.04 in - ENE 6.9 mph - N/A   Clear
9:55 AM 75.2 °F - 59.0 °F 57% 30.04 in 6.2 mi NNE 6.9 mph - N/A   Partly Cloudy
10:55 AM 80.6 °F 81.1 °F 59.0 °F 48% 30.04 in 6.2 mi NE 9.2 mph - N/A   Partly Cloudy
11:00 AM 81 °F - 58 °F 36% 30.05 in 12 mi NE 9.2 mph - -   Scattered Clouds
11:55 AM 84.2 °F 82.8 °F 53.6 °F 35% 30.04 in 6.2 mi ENE 11.5 mph - N/A   Partly Cloudy
12:55 PM 84.2 °F - 51.8 °F 33% 30.04 in - NE 9.2 mph - N/A   Clear
1:55 PM 86.0 °F - 51.8 °F 31% 30.01 in 6.2 mi NE 5.8 mph - N/A   Partly Cloudy
2:00 PM 86 °F - 52 °F 21% 30.03 in 12 mi NE 5.8 mph - -  
2:55 PM 87.8 °F - 48.2 °F 25% 30.01 in 6.2 mi WSW 2.3 mph - N/A   Partly Cloudy
3:55 PM 87.8 °F - 51.8 °F 29% 29.98 in 6.2 mi SW 3.5 mph - N/A   Partly Cloudy
4:55 PM 84.2 °F 83.8 °F 59.0 °F 42% 29.98 in 6.2 mi WNW 8.1 mph - N/A   Partly Cloudy
5:00 PM 84 °F - 59 °F 32% 30.00 in 12 mi WNW 8.1 mph - -   Scattered Clouds
5:55 PM 82.4 °F 83.9 °F 64.4 °F 54% 29.98 in 6.2 mi West 8.1 mph - N/A   Partly Cloudy
6:55 PM 78.8 °F - 66.2 °F 65% 29.98 in 6.2 mi WSW 4.6 mph - N/A   Partly Cloudy
7:55 PM 75.2 °F - 66.2 °F 73% 29.98 in - NW 3.5 mph - N/A   Clear
8:55 PM 73.4 °F - 64.4 °F 73% 30.01 in - ENE 5.8 mph - N/A   Clear
9:55 PM 69.8 °F - 62.6 °F 78% 30.04 in - NE 5.8 mph - N/A   Clear
10:55 PM 69.8 °F - 62.6 °F 78% 30.04 in - ENE 3.5 mph - N/A   Clear
11:00 PM 70 °F - 63 °F 71% 30.04 in 12 mi ENE 3.5 mph - -   Clear
11:55 PM 69.8 °F - 60.8 °F 73% 30.04 in - NE 6.9 mph - N/A   Clear